Location: Newark
(38.7000°N, 9.1833°W)
Time: 05:58:51
(UTC+00:00)

Hubble Space Telescope - Visible Passes

Search period start: 22 October 2019 00:00
Search period end: 01 November 2019 00:00
Orbit: 536 x 540 km, 28.5° (Epoch: 20 October)

Date Brightness Start Highest point End Pass type
(mag) Time Alt. Az. Time Alt. Az. Time Alt. Az.
28 Oct 3.3 06:31:22 10° SSW 06:33:37 14° SSE 06:35:52 10° SE visible
29 Oct 3.2 06:20:23 10° SSW 06:22:56 16° S 06:25:28 10° SE visible
30 Oct 3.1 06:09:30 10° SSW 06:12:14 17° S 06:15:00 10° SE visible
31 Oct 2.9 05:58:41 10° SW 06:01:34 18° S 06:04:27 10° SE visible
